Le nostre stazioni meteo in Italia

Pubblicità
Il mio iltempo24.it
Bologna, Italia (16132): Temperatura & dewpoint: 15.06.2019 00:00:00 - 21.06.2019 00:00:00 (CEST)Bologna, Italia (16132): velocità del vento: 15.06.2019 00:00:00 - 21.06.2019 00:00:00 (CEST)Bologna, Italia (16132): direzione del vento: 15.06.2019 00:00:00 - 21.06.2019 00:00:00 (CEST)Bologna, Italia (16132): reduced air pressure: 15.06.2019 00:00:00 - 21.06.2019 00:00:00 (CEST)
Data & Tempo tt [°C] td [°C] ff [km/h] ff [kn] dd ppp [hPa]
21.06.2019 00:00:00 - - - - - -
20.06.2019 23:00:00 24,9 10,7 8 4 NE 1012,5
20.06.2019 22:00:00 27,0 10,6 8 4 N 1011,9
20.06.2019 21:00:00 28,9 11,0 8 4 NNO 1011,2
20.06.2019 20:00:00 30,5 12,0 21 11 NNO 1010,5
20.06.2019 19:00:00 - 13,6 16 9 NNO 1010,1
20.06.2019 18:00:00 32,0 13,2 13 7 N 1010,0
20.06.2019 17:00:00 31,9 13,2 24 13 N 1010,4
20.06.2019 16:00:00 - - - - - -
20.06.2019 15:00:00 32,0 14,6 4 2 NNO 1011,2
20.06.2019 14:00:00 31,6 13,8 8 4 O 1011,7
20.06.2019 13:00:00 30,9 15,3 4 2 SSE 1012,2
20.06.2019 12:00:00 29,9 13,2 4 2 E 1012,4
20.06.2019 11:00:00 28,1 13,2 2 1 N 1012,4
20.06.2019 10:00:00 26,4 13,4 5 3 NNO 1012,5
20.06.2019 09:00:00 24,1 12,9 15 8 NNO 1012,6
20.06.2019 08:00:00 22,1 12,0 15 8 N 1012,5
20.06.2019 07:00:00 20,6 10,9 9 5 N 1012,5
20.06.2019 06:00:00 19,6 10,5 9 5 NNE 1012,6
20.06.2019 05:00:00 20,2 10,5 8 4 NNE 1012,5
20.06.2019 04:00:00 21,4 11,1 9 5 N 1012,1
20.06.2019 03:00:00 22,3 11,9 4 2 E 1012,3
20.06.2019 02:00:00 23,8 12,1 9 5 N 1012,0
20.06.2019 01:00:00 24,6 12,8 11 6 N 1011,8
20.06.2019 00:00:00 25,7 13,8 18 10 N 1011,5
19.06.2019 23:00:00 26,5 14,9 21 11 N 1011,4
19.06.2019 22:00:00 27,5 16,4 16 9 N 1011,2
19.06.2019 21:00:00 28,9 17,7 18 10 N 1010,6
19.06.2019 20:00:00 30,4 17,4 13 7 N 1010,4
19.06.2019 19:00:00 31,6 18,5 22 12 N 1010,4
19.06.2019 18:00:00 32,2 19,1 2 1 NNE 1010,5
19.06.2019 17:00:00 32,0 18,9 5 3 E 1010,8
19.06.2019 16:00:00 - - - - - -
19.06.2019 15:00:00 31,5 19,1 9 5 E 1011,7
19.06.2019 14:00:00 30,7 18,7 2 1 NE 1012,5
19.06.2019 13:00:00 30,3 19,0 4 2 NNE 1012,8
19.06.2019 12:00:00 28,8 18,5 8 4 E 1012,9
19.06.2019 11:00:00 27,7 18,1 8 4 ESE 1013,3
19.06.2019 10:00:00 26,8 17,8 13 7 E 1013,3
19.06.2019 09:00:00 25,1 17,2 4 2 N 1013,4
19.06.2019 08:00:00 23,0 17,2 8 4 N 1013,4
19.06.2019 07:00:00 21,1 16,6 13 7 N 1013,3
19.06.2019 06:00:00 21,3 16,4 11 6 N 1013,3
19.06.2019 05:00:00 21,6 16,7 13 7 N 1013,0
19.06.2019 04:00:00 21,7 17,0 9 5 N 1013,0
19.06.2019 03:00:00 22,4 17,0 15 8 N 1013,2
19.06.2019 02:00:00 23,3 17,2 13 7 N 1013,6
19.06.2019 01:00:00 24,1 17,3 13 7 NNO 1013,6
19.06.2019 00:00:00 25,1 17,7 5 3 NO 1013,7
18.06.2019 23:00:00 26,1 18,4 8 4 NNO 1013,6
18.06.2019 22:00:00 26,6 18,4 16 9 O 1013,6
18.06.2019 21:00:00 28,8 17,6 11 6 OSO 1013,2
18.06.2019 20:00:00 29,6 18,3 11 6 SO 1013,0
18.06.2019 19:00:00 30,4 18,5 5 3 S 1013,0
18.06.2019 18:00:00 30,7 18,4 15 8 SSE 1012,9
18.06.2019 17:00:00 30,9 18,9 4 2 ESE 1013,0
18.06.2019 16:00:00 31,0 19,0 13 7 SSO 1013,8
18.06.2019 15:00:00 30,8 19,5 5 3 SO 1014,5
18.06.2019 14:00:00 29,9 18,6 8 4 ENE 1014,9
18.06.2019 13:00:00 29,2 18,3 11 6 O 1015,3
18.06.2019 12:00:00 28,5 17,6 8 4 ESE 1015,5
18.06.2019 11:00:00 27,3 16,8 4 2 NNE 1015,6
18.06.2019 10:00:00 25,4 17,8 4 2 ESE 1016,0
18.06.2019 09:00:00 23,0 16,5 4 2 E 1016,2
18.06.2019 08:00:00 20,8 15,7 4 2 N 1016,3
18.06.2019 07:00:00 19,3 15,5 15 8 NNE 1015,7
18.06.2019 06:00:00 18,7 14,9 13 7 N 1015,4
18.06.2019 05:00:00 18,9 14,9 11 6 N 1015,5
18.06.2019 04:00:00 20,1 15,5 8 4 N 1015,5
18.06.2019 03:00:00 20,5 16,0 11 6 N 1015,6
18.06.2019 02:00:00 21,0 16,3 9 5 N 1015,8
18.06.2019 01:00:00 21,6 16,3 4 2 N 1015,8
18.06.2019 00:00:00 23,1 16,1 0 0 N 1015,6
17.06.2019 23:00:00 24,8 17,0 4 2 NNO 1015,1
17.06.2019 22:00:00 26,0 17,0 8 4 NO 1014,8
17.06.2019 21:00:00 27,1 16,9 18 10 ONO 1014,3
17.06.2019 20:00:00 28,4 17,8 13 7 O 1013,8
17.06.2019 19:00:00 29,4 18,2 15 8 O 1013,7
17.06.2019 18:00:00 29,7 18,1 5 3 SO 1014,0
17.06.2019 17:00:00 29,6 18,3 13 7 OSO 1014,2
17.06.2019 16:00:00 29,8 18,8 11 6 SSE 1014,6
17.06.2019 15:00:00 29,4 19,1 9 5 SSO 1015,3
17.06.2019 14:00:00 29,1 18,5 13 7 NNE 1015,4
17.06.2019 13:00:00 28,5 18,5 11 6 SSO 1015,8
17.06.2019 12:00:00 27,8 17,9 15 8 OSO 1015,9
17.06.2019 11:00:00 27,0 18,2 4 2 SSO 1016,1
17.06.2019 10:00:00 24,8 17,0 5 3 E 1016,3
17.06.2019 09:00:00 23,2 15,4 5 3 E 1016,2
17.06.2019 08:00:00 21,5 15,0 4 2 NE 1015,6
17.06.2019 07:00:00 19,6 15,8 9 5 NNE 1015,2
17.06.2019 06:00:00 19,1 15,3 15 8 NNE 1014,7
17.06.2019 05:00:00 19,4 15,0 8 4 E 1014,5
17.06.2019 04:00:00 20,8 15,7 11 6 N 1013,7
17.06.2019 03:00:00 21,8 16,0 8 4 N 1014,0
17.06.2019 02:00:00 22,7 16,2 16 9 N 1014,0
17.06.2019 01:00:00 23,3 16,5 13 7 N 1013,8
17.06.2019 00:00:00 24,2 16,9 16 9 N 1013,8
16.06.2019 23:00:00 24,9 17,0 5 3 N 1013,6
16.06.2019 22:00:00 26,1 16,0 4 2 NNE 1012,6
16.06.2019 21:00:00 28,4 16,0 2 1 E 1012,3
16.06.2019 20:00:00 30,2 16,9 5 3 ESE 1012,2
16.06.2019 19:00:00 30,6 18,3 8 4 E 1012,2
16.06.2019 18:00:00 30,6 17,3 13 7 E 1012,3
16.06.2019 17:00:00 30,9 17,9 15 8 E 1012,8
16.06.2019 16:00:00 - - - - - -
16.06.2019 15:00:00 29,4 17,5 13 7 E 1013,6
16.06.2019 14:00:00 29,1 18,2 9 5 E 1013,8
16.06.2019 13:00:00 27,9 17,4 15 8 E 1014,3
16.06.2019 12:00:00 26,9 17,3 9 5 ESE 1014,4
16.06.2019 11:00:00 25,6 16,1 8 4 E 1014,7
16.06.2019 10:00:00 24,3 15,2 11 6 N 1014,6
16.06.2019 09:00:00 23,4 15,4 5 3 ENE 1014,6
16.06.2019 08:00:00 21,9 14,9 4 2 N 1014,2
16.06.2019 07:00:00 19,4 15,6 5 3 N 1014,1
16.06.2019 06:00:00 18,9 14,7 8 4 N 1014,1
16.06.2019 05:00:00 19,7 15,1 9 5 N 1013,8
16.06.2019 04:00:00 20,5 15,4 8 4 N 1013,6
16.06.2019 03:00:00 21,4 15,4 9 5 N 1013,8
16.06.2019 02:00:00 22,7 15,7 4 2 N 1013,7
16.06.2019 01:00:00 23,6 16,6 9 5 N 1013,8
16.06.2019 00:00:00 23,9 17,3 11 6 N 1013,5
15.06.2019 23:00:00 24,7 17,6 9 5 N 1013,2
15.06.2019 22:00:00 25,7 18,1 24 13 N 1012,3
15.06.2019 21:00:00 26,8 18,6 13 7 N 1012,0
15.06.2019 20:00:00 28,3 19,5 15 8 N 1011,9
15.06.2019 19:00:00 30,0 20,2 9 5 NNE 1012,1
15.06.2019 18:00:00 30,5 20,4 9 5 N 1012,2
15.06.2019 17:00:00 31,1 21,0 5 3 NO 1012,7
15.06.2019 16:00:00 30,6 20,5 8 4 ENE 1013,0
15.06.2019 15:00:00 29,8 19,7 11 6 ESE 1013,5
15.06.2019 14:00:00 29,2 19,8 9 5 E 1013,8
15.06.2019 13:00:00 28,4 19,0 16 9 ESE 1014,2
15.06.2019 12:00:00 27,6 18,8 15 8 ESE 1014,2
15.06.2019 11:00:00 26,8 19,1 18 10 SE 1014,3
15.06.2019 10:00:00 25,8 18,9 13 7 ESE 1014,3
15.06.2019 09:00:00 25,1 18,9 8 4 E 1013,9
15.06.2019 08:00:00 23,2 19,9 5 3 E 1013,7
15.06.2019 07:00:00 21,7 18,8 4 2 E 1013,6
15.06.2019 06:00:00 21,0 18,1 11 6 NE 1013,2
15.06.2019 05:00:00 20,9 17,8 5 3 ENE 1013,5
15.06.2019 04:00:00 22,7 19,0 4 2 ENE 1013,0
15.06.2019 03:00:00 23,1 19,2 13 7 O 1013,1
15.06.2019 02:00:00 23,1 19,2 15 8 O 1013,2
15.06.2019 01:00:00 23,4 18,9 21 11 O 1014,0
15.06.2019 00:00:00 24,4 19,8 15 8 OSO 1014,3

tt = Temperatura
td = dewpoint
ff = velocità del vento
dd = direzione del vento
ppp = reduced air pressure

Stazioni seguenti

WeatherPro
AMSI
MeteoEarth